Regional Weather Roundup
Issued by NWS

Home | Current Version | Previous Version | Text Only | Print | Product List | Glossary On
Versions: 1 2 3 4 5 6 7 8 9 10 11 12 13 14 15 16 17 18 19 20 21 22 23 24 25 26 27 28 29 30 31 32 33 34 35 36 37 38 39 40 41 42 43 44 45 46 47 48 49 50
000
ASUS44 KOUN 241410
RWROK

WEATHER ROUNDUP FOR OKLAHOMA
NATIONAL WEATHER SERVICE NORMAN OK
800 AM CST SAT FEB 24 2018

NOTE: "FAIR" INDICATES FEW OR NO CLOUDS BELOW 12,000 FEET WITH NO
      SIGNIFICANT WEATHER AND/OR OBSTRUCTIONS TO VISIBILITY.

OKZ001>007-009>012-014-015-017-241500-
NORTHWEST OKLAHOMA AND THE PANHANDLE

CITY           SKY/WX    TMP DP  RH WIND       PRES   REMARKS
GAGE           CLOUDY    31  30  96 NE7       29.85F WCI  24
GUYMON         FOG       29  29 100 NE5       29.83F VSB 1   WCI  24
ENID/WOODRING  FOG       34  34 100 N12       29.86S VSB 1/2 WCI  25
$$

OKZ016-021>023-033>039-044-045-241500-
SOUTHWEST OKLAHOMA

CITY           SKY/WX    TMP DP  RH WIND       PRES   REMARKS
LAWTON/REGL    TSTM      40  40 100 CALM      29.90S FOG
LAWTON/FT SILL LGT RAIN  39  39 100 CALM      29.88F
FREDERICK      CLOUDY    40  39  97 NW7       29.86F
CLINTON        CLOUDY    33  33 100 N9        29.90R FOG     WCI  25
HOBART         CLOUDY    37  37 100 N7        29.90R FOG     WCI  32
ALTUS AFB      CLOUDY   N/A N/A N/A CALM      29.92R
$$

OKZ018>020-024>031-241500-
CENTRAL OKLAHOMA

CITY           SKY/WX    TMP DP  RH WIND       PRES   REMARKS
OKLAHOMA CITY  TSTM      37  37 100 N12       29.80F VSB 1/4 WCI  29
OKC/WILEY POST FOG       37  37 100 N10       29.83R VSB 1/4 WCI  30
OKC/TINKER AFB TSTM      37  37 100 NE10      29.79F FOG     WCI  30
STILLWATER     FOG       37  35  92 N9        29.84F VSB 1/4 WCI  30
GUTHRIE        FOG       37  36  96 NE5       29.85F VSB 1/4 WCI  33
$$

OKZ008-013-054>072-241500-
NORTHEAST OKLAHOMA

CITY           SKY/WX    TMP DP  RH WIND       PRES   REMARKS
TULSA          FOG       41  41 100 CALM      29.86F VSB 3/4
TULSA/JONES    CLOUDY    41  40  96 NE5       29.87F FOG
PONCA CITY     CLOUDY    36  34  92 NE10      29.85F FOG     WCI  28
BARTLESVILLE   FOG       38  37  97 NE5       29.90F VSB 3/4 WCI  34
MUSKOGEE       FOG       45  44  97 NE3       29.89F VSB 1
$$

OKZ032-040>043-046>053-073>077-241500-
SOUTH CENTRAL/SOUTHEAST OKLAHOMA

CITY           SKY/WX    TMP DP  RH WIND       PRES   REMARKS
ARDMORE/DWNTWN LGT RAIN  43  41  93 CALM      29.82F
MCALESTER      FOG       47  47 100 NE3       29.85F VSB 1/4
$$




USA.gov is the U.S. government's official web portal to all federal, state and local government web resources and services.